TimeMDT,TemperatureF,Dew PointF,Humidity,Sea Level PressureIn,VisibilityMPH,Wind Direction,Wind SpeedMPH,Gust SpeedMPH,PrecipitationIn,Events,Conditions,WindDirDegrees,DateUTC
12:53 AM,39.9,26.1,58,29.93,10.0,North,4.6,-,N/A,,Clear,360,2012-10-11 06:53:00
1:53 AM,41.0,27.0,57,29.94,10.0,NNE,4.6,-,N/A,,Clear,20,2012-10-11 07:53:00
2:53 AM,36.0,27.0,70,29.97,10.0,North,3.5,-,N/A,,Clear,10,2012-10-11 08:53:00
3:53 AM,36.0,27.0,70,29.97,10.0,North,3.5,-,N/A,,Clear,10,2012-10-11 09:53:00
4:53 AM,35.1,28.0,76,29.99,10.0,NNE,3.5,-,N/A,,Clear,20,2012-10-11 10:53:00
5:53 AM,35.1,28.0,76,30.02,10.0,North,4.6,-,N/A,,Clear,10,2012-10-11 11:53:00
6:53 AM,35.1,28.9,78,30.09,10.0,NW,4.6,-,N/A,,Clear,310,2012-10-11 12:53:00
7:53 AM,35.1,30.0,82,30.14,10.0,NNW,4.6,-,N/A,,Clear,340,2012-10-11 13:53:00
8:53 AM,35.1,30.0,82,30.17,10.0,Calm,Calm,-,N/A,,Partly Cloudy,0,2012-10-11 14:53:00
9:17 AM,35.6,30.2,81,30.19,10.0,NE,4.6,-,N/A,,Mostly Cloudy,40,2012-10-11 15:17:00
9:26 AM,33.8,30.2,87,30.19,10.0,NE,5.8,-,N/A,,Overcast,50,2012-10-11 15:26:00
9:53 AM,34.0,30.9,89,30.20,9.0,ENE,5.8,-,N/A,,Overcast,70,2012-10-11 15:53:00
10:28 AM,35.6,30.2,81,30.22,10.0,East,5.8,-,N/A,,Overcast,80,2012-10-11 16:28:00
10:53 AM,35.1,30.9,85,30.24,9.0,East,5.8,-,N/A,,Overcast,90,2012-10-11 16:53:00
11:38 AM,33.8,30.2,87,30.22,4.0,ENE,6.9,-,N/A,,Overcast,70,2012-10-11 17:38:00
11:48 AM,32.0,30.2,93,30.23,2.5,East,5.8,-,N/A,,Overcast,90,2012-10-11 17:48:00
11:53 AM,33.1,30.0,89,30.25,2.5,ENE,5.8,-,N/A,,Overcast,70,2012-10-11 17:53:00
12:00 PM,33.8,30.2,87,30.22,4.0,ENE,4.6,-,N/A,,Overcast,60,2012-10-11 18:00:00
12:26 PM,35.6,30.2,81,30.22,8.0,East,5.8,-,N/A,,Overcast,80,2012-10-11 18:26:00
12:51 PM,33.8,30.2,87,30.22,8.0,ESE,5.8,-,N/A,,Overcast,110,2012-10-11 18:51:00
12:53 PM,35.1,30.0,82,30.24,8.0,ESE,4.6,-,N/A,,Overcast,120,2012-10-11 18:53:00
1:01 PM,35.6,30.2,81,30.22,10.0,East,5.8,-,N/A,,Overcast,100,2012-10-11 19:01:00
1:53 PM,36.0,30.0,79,30.22,10.0,ESE,5.8,-,N/A,,Overcast,110,2012-10-11 19:53:00
2:53 PM,36.0,28.9,76,30.25,10.0,ESE,6.9,-,N/A,,Overcast,110,2012-10-11 20:53:00
3:53 PM,37.0,28.9,73,30.24,10.0,ESE,4.6,-,N/A,,Overcast,120,2012-10-11 21:53:00
4:32 PM,37.4,28.4,70,30.21,10.0,Variable,3.5,-,N/A,,Scattered Clouds,0,2012-10-11 22:32:00
4:53 PM,37.0,28.0,70,30.24,10.0,ESE,4.6,-,N/A,,Scattered Clouds,110,2012-10-11 22:53:00
5:53 PM,34.0,27.0,75,30.26,10.0,ESE,5.8,-,N/A,,Clear,120,2012-10-11 23:53:00
6:53 PM,30.9,26.1,82,30.29,10.0,ESE,4.6,-,N/A,,Clear,110,2012-10-12 00:53:00
7:53 PM,28.9,25.0,85,30.31,10.0,Calm,Calm,-,N/A,,Clear,0,2012-10-12 01:53:00
8:53 PM,27.0,24.1,89,30.33,10.0,Calm,Calm,-,N/A,,Clear,0,2012-10-12 02:53:00
9:53 PM,28.0,25.0,88,30.32,10.0,Calm,Calm,-,N/A,,Clear,0,2012-10-12 03:53:00
10:53 PM,25.0,23.0,92,30.32,10.0,Calm,Calm,-,N/A,,Clear,0,2012-10-12 04:53:00
11:53 PM,25.0,21.9,88,30.32,10.0,Calm,Calm,-,N/A,,Clear,0,2012-10-12 05:53:00